星链-30864 (STARLINK-30864 )

导读

STARLINK-30864是美国太空探索技术公司Starlink卫星互联网项目的成员,2023年11月8日发射。它属于低轨通信卫星,旨在为全球提供高速低延迟互联网服务,尤其覆盖偏远与网络基础设施匮乏区域,是星链大规模组网过程中补充星座容量、提升全球服务稳定性的一颗卫星,延续了星链批量部署、构建全球卫星互联网的部署目标。

基本信息
目录编号:
58243
目录名称:
STARLINK-30864
国际标识:
2023-171P
轨道中心:
EARTH
卫星名称:
星链-30864
卫星全名:
星链-30864 (STARLINK-30864 )
卫星状态:
在轨 (已飞行1032 天)
发射日期:
2023-11-08 UTC
国别 :
美国 (US)
星等 :
--
轨道信息
数据来源 国际轨道数据
星历时间: 2026-09-05T15:18:46+0800
5小时前
查看轨道信息
半长轴: 6861.179km
偏心率: 0.0000946
轨道倾角: 43.001°
近地点辐角 261.272°
升交点赤经 350.920°
平近点角 98.802°
近地点: 482.392km
远地点: 483.692km
周期: 94.267分钟
每日圈数: 15.275827
详细信息
固有亮度:
5
最大亮度:
0.3
卫星平台:
Starlink v2.0 mini
覆盖范围:
全球
运营商:
太空探索技术公司
运营商所在国:
美国
制造商(研发单位):
太空探索技术公司
制造商所在国:
美国
使用方式:
暂无
卫星简介
星链(Starlink)计划是由太空探索技术公司(SpaceX)提出的一个巨型低轨卫星互联网星座项目,计划在2019年至2024年间在太空搭建由约1.2万颗卫星组成的“星链”网络,其中1584颗将部署在地球上空550千米处的近地轨道,并从2020年开始工作。该卫星仍在工作。
2D轨道图
3D轨道图
轨道高度分析图
轨道倾角分析图
轨道综合分析图
查看轨道综合分析图
交会数据列表
事件ID 空间交会对象 最接近时刻(TCA) 交会距离 交会风险概率(CRP) 交会风险指数(CRI) 操作
CDM_260906-154605-824306-736221
2026-09-06T
15:46:38+0000
0.164 km
中距离
6.8851E-4 高风险 0.92
CDM_260907-015805-824306-736221
2026-09-07T
01:58:40+0000
0.975 km
远距离
1.395519E-5 中风险 0.58
CDM_260907-002405-824306-736221
2026-09-07T
00:24:31+0000
1.140 km
极远距离
8.158667E-6 低风险 0.53
CDM_260906-033305-717605-824321
OBJECT L (57176)
2026-09-06T
03:33:05+0000
1.444 km
极远距离
4.914889E-6 低风险 0.49
CDM_260906-172005-824306-736221
2026-09-06T
17:20:48+0000
1.798 km
极远距离
1.932381E-6 低风险 0.41
CDM_260908-000105-305005-824321
2026-09-08T
00:01:35+0000
2.331 km
极远距离
1.711445E-6 低风险 0.4
CDM_260906-141205-824306-736221
2026-09-06T
14:12:29+0000
1.960 km
极远距离
1.54894E-6 低风险 0.39
CDM_260906-131105-824306-393121
2026-09-06T
13:11:24+0000
2.716 km
极远距离
1.396569E-6 低风险 0.38
CDM_260907-131905-719405-824321
2026-09-07T
13:19:34+0000
2.870 km
极远距离
9.600391E-7 极低风险 0.35
CDM_260907-033205-824306-736221
2026-09-07T
03:32:50+0000
2.959 km
极远距离
7.496971E-7 极低风险 0.32